Orbital Elements at Epoch 2459200.5 (2020-Dec-17.0) TDB
Reference: JPL 15 (heliocentric ecliptic J2000)
Element | Value | Uncertainty (1-sigma) | Units |
e | .1001298233771566 | 5.6822e-08 | |
a | 2.586261985257852 | 1.4858e-08 | au |
q | 2.327300029466929 | 1.4616e-07 | au |
i | 7.252296662822832 | 6.5415e-06 | deg |
node | 198.9615725426299 | 3.3757e-05 | deg |
peri | 162.0407697782518 | 4.3421e-05 | deg |
M | 122.8149761896746 | 2.6377e-05 | deg |
tp | 2458682.230049619783 (2019-Jul-17.73004962) | 0.00011158 | TDB |
period | 1519.172888563115 4.16 | 1.3092e-05 3.584e-08 | d yr |
n | .2369710535977904 | 2.0421e-09 | deg/d |
Q | 2.845223941048775 | 1.6346e-08 | au |
|
| | Orbit Determination Parameters
Additional Information
|